EW5390 Weather Reports


Display with metric or nautical units.
time (UTC)temp
F
wind
direction
speed
MPH
gust
MPH
rain 1hr
in
rain 24hr
in
rain mn
in
humidity
%
barometer
mb
20260503072551 44 0 0.0 2.0 0.00 0.00 0.00 76 1012.0
20260503072052 44 3 0.0 2.0 0.00 0.00 0.00 76 1011.9
20260503071610 44 328 0.0 1.0 0.00 0.00 0.00 76 1011.9
20260503071051 44 0 0.0 1.0 0.00 0.00 0.00 75 1011.8
20260503070552 44 0 0.0 0.0 0.00 0.00 0.00 75 1011.9
20260503070114 45 0 0.0 0.0 0.00 0.00 0.00 74 1011.9
20260503060124 47 0 0.0 1.0 0.00 0.00 0.00 70 1011.8
20260503055054 48 0 0.0 0.0 0.00 0.00 0.00 68 1011.9
20260503054559 48 0 0.0 0.0 0.00 0.00 0.00 68 1011.9
20260503054054 48 0 0.0 0.0 0.00 0.00 0.00 68 1011.9
20260503053555 48 0 0.0 0.0 0.00 0.00 0.00 67 1012.0
20260503053054 49 0 0.0 1.0 0.00 0.00 0.00 67 1011.9
20260503052553 49 0 0.0 1.0 0.00 0.00 0.00 67 1011.9
20260503052051 49 329 0.0 1.0 0.00 0.00 0.00 66 1011.9
20260503051553 50 328 0.0 0.0 0.00 0.00 0.00 65 1012.0
20260503051056 50 0 0.0 3.0 0.00 0.00 0.00 64 1012.0
20260503050553 50 322 0.0 3.0 0.00 0.00 0.00 63 1011.9
20260503050101 50 322 0.0 3.0 0.00 0.00 0.00 62 1012.0
20260503045553 50 27 1.0 3.0 0.00 0.00 0.00 61 1012.0
20260503045052 51 323 0.0 4.0 0.00 0.00 0.00 61 1012.0
20260503044556 51 330 0.0 4.0 0.00 0.00 0.00 60 1012.1
20260503044055 51 311 1.0 4.0 0.00 0.00 0.00 60 1012.0
20260503043554 51 320 1.0 4.0 0.00 0.00 0.00 60 1012.0
20260503043054 51 342 1.0 4.0 0.00 0.00 0.00 60 1012.0
20260503042554 52 18 2.0 4.0 0.00 0.00 0.00 60 1012.0
20260503042055 52 323 1.0 4.0 0.00 0.00 0.00 61 1012.0
20260503041552 52 329 2.0 4.0 0.00 0.00 0.00 60 1012.0
20260503041055 52 21 1.0 4.0 0.00 0.00 0.00 60 1012.2
20260503040551 52 348 1.0 9.0 0.00 0.00 0.00 60 1012.2
20260503040055 52 41 1.0 9.0 0.00 0.00 0.00 60 1012.1
20260503035552 52 334 1.0 9.0 0.00 0.00 0.00 59 1012.1
20260503035058 52 44 0.0 3.0 0.00 0.00 0.00 59 1012.1
20260503034554 52 360 0.0 2.0 0.00 0.00 0.00 60 1012.1
20260503034054 52 80 0.0 2.0 0.00 0.00 0.00 59 1012.2
20260503033556 52 0 0.0 2.0 0.00 0.00 0.00 60 1012.2
20260503033100 52 18 0.0 2.0 0.00 0.00 0.00 59 1012.2
20260503032554 52 345 0.0 3.0 0.00 0.00 0.00 60 1012.2
20260503032057 52 342 0.0 3.0 0.00 0.00 0.00 59 1012.2
20260503031554 52 323 0.0 3.0 0.00 0.00 0.00 60 1012.3
20260503031053 52 0 0.0 0.0 0.00 0.00 0.00 60 1012.2
20260503030553 52 0 0.0 0.0 0.00 0.00 0.00 60 1012.3
20260503030054 52 0 0.0 1.0 0.00 0.00 0.00 59 1012.3
20260503025554 52 319 0.0 1.0 0.00 0.00 0.00 59 1012.1
20260503025057 52 0 0.0 1.0 0.00 0.00 0.00 58 1012.1
20260503024600 53 0 0.0 1.0 0.00 0.00 0.00 58 1012.1
20260503024055 53 0 0.0 2.0 0.00 0.00 0.00 58 1012.1
20260503023552 53 24 0.0 2.0 0.00 0.00 0.00 57 1012.1
20260503023055 53 338 0.0 3.0 0.00 0.00 0.00 57 1012.1
20260503022708 53 0 0.0 3.0 0.00 0.00 0.00 57 1012.1
20260503022055 53 0 0.0 3.0 0.00 0.00 0.00 56 1012.2
20260503021554 53 327 0.0 2.0 0.00 0.00 0.00 56 1012.1
20260503021054 53 0 1.0 2.0 0.00 0.00 0.00 56 1012.2
20260503020554 53 338 0.0 3.0 0.00 0.00 0.00 57 1012.3
20260503020058 53 305 0.0 3.0 0.00 0.00 0.00 56 1012.2
20260503015554 53 0 0.0 3.0 0.00 0.00 0.00 56 1012.1
20260503015058 53 308 0.0 3.0 0.00 0.00 0.00 56 1012.1
20260503014612 53 329 1.0 3.0 0.00 0.00 0.00 57 1012.1
20260503014124 53 289 0.0 2.0 0.00 0.00 0.00 58 1012.0
20260503014054 53 289 0.0 2.0 0.00 0.00 0.00 58 1012.0
20260503013552 53 0 0.0 2.0 0.00 0.00 0.00 57 1012.1
20260503013058 53 335 0.0 2.0 0.00 0.00 0.00 58 1012.1
20260503012551 53 321 0.0 1.0 0.00 0.00 0.00 58 1012.1
20260503012052 53 345 0.0 1.0 0.00 0.00 0.00 59 1012.0
20260503011620 53 0 0.0 2.0 0.00 0.00 0.00 59 1012.0
20260503011054 53 0 0.0 2.0 0.00 0.00 0.00 59 1012.0
20260503010551 53 0 0.0 2.0 0.00 0.00 0.00 60 1012.1
20260503010055 53 0 0.0 0.0 0.00 0.00 0.00 59 1012.0
20260503005554 53 0 0.0 0.0 0.00 0.00 0.00 58 1012.0
20260503005052 53 0 0.0 0.0 0.00 0.00 0.00 59 1011.9
20260503004555 53 0 0.0 0.0 0.00 0.00 0.00 58 1011.8
20260503004054 54 0 0.0 0.0 0.00 0.00 0.00 59 1011.6
20260503003554 54 0 0.0 0.0 0.00 0.00 0.00 58 1011.5
20260503003107 54 0 0.0 0.0 0.00 0.00 0.00 56 1011.4
20260503002554 54 0 0.0 0.0 0.00 0.00 0.00 55 1011.3
20260503002051 55 0 0.0 0.0 0.00 0.00 0.00 54 1011.3
20260503001553 55 0 0.0 0.0 0.00 0.00 0.00 54 1011.4
20260503001052 55 0 0.0 1.0 0.00 0.00 0.00 53 1011.6
20260503000552 55 0 0.0 1.0 0.00 0.00 0.00 53 1011.3
20260503000055 56 0 0.0 1.0 0.00 0.00 0.00 51 1011.2
20260502235551 56 0 0.0 1.0 0.00 0.00 0.00 52 1011.1
20260502235051 56 0 0.0 1.0 0.00 0.00 0.00 52 1011.2
20260502234612 56 0 0.0 1.0 0.00 0.00 0.00 52 1011.1
20260502234054 57 0 0.0 3.0 0.00 0.00 0.00 50 1011.1
20260502233554 57 30 1.0 4.0 0.00 0.00 0.00 49 1011.1
20260502233059 57 331 0.0 4.0 0.00 0.00 0.00 48 1011.1
20260502232554 57 321 1.0 3.0 0.00 0.00 0.00 47 1011.1
20260502232054 57 13 1.0 5.0 0.00 0.00 0.00 48 1011.1
20260502231554 57 18 2.0 5.0 0.00 0.00 0.00 48 1011.0
20260502231058 58 341 1.0 3.0 0.00 0.00 0.00 47 1011.0
20260502230554 58 69 1.0 3.0 0.00 0.00 0.00 48 1011.1
20260502225551 58 338 0.0 4.0 0.00 0.00 0.00 48 1011.1
20260502225053 58 337 1.0 4.0 0.00 0.00 0.00 46 1011.0
20260502224556 58 297 1.0 7.0 0.00 0.00 0.00 46 1011.0
20260502224054 58 0 0.0 7.0 0.00 0.00 0.00 47 1011.1
20260502223554 58 4 0.0 4.0 0.00 0.00 0.00 47 1011.0
20260502223102 58 326 0.0 4.0 0.00 0.00 0.00 46 1011.0
20260502222556 58 358 1.0 4.0 0.00 0.00 0.00 45 1011.0
20260502222054 58 354 1.0 4.0 0.00 0.00 0.00 46 1011.0
20260502221557 59 321 2.0 4.0 0.00 0.00 0.00 46 1011.0
20260502221055 59 309 1.0 4.0 0.00 0.00 0.00 47 1011.0
20260502220555 59 36 1.0 3.0 0.00 0.00 0.00 48 1010.9
20260502215554 59 126 1.0 5.0 0.00 0.00 0.00 47 1010.9
20260502215054 58 266 0.0 5.0 0.00 0.00 0.00 47 1011.1
20260502214555 59 295 2.0 4.0 0.00 0.00 0.00 47 1010.9
20260502214055 58 22 0.0 4.0 0.00 0.00 0.00 49 1011.0
20260502213554 58 346 0.0 4.0 0.00 0.00 0.00 48 1010.9
20260502213054 58 258 0.0 3.0 0.00 0.00 0.00 50 1010.9
20260502212556 58 0 1.0 3.0 0.00 0.00 0.00 48 1010.9
20260502212054 58 0 0.0 7.0 0.00 0.00 0.00 48 1011.0
20260502211556 58 323 2.0 7.0 0.00 0.00 0.00 49 1010.9
20260502211054 58 324 1.0 4.0 0.00 0.00 0.00 48 1010.6
20260502210556 59 314 1.0 4.0 0.00 0.00 0.00 50 1010.8
20260502210057 59 344 1.0 6.0 0.00 0.00 0.00 48 1010.8
20260502205553 59 253 1.0 6.0 0.00 0.00 0.00 49 1010.7
20260502205055 59 315 2.0 4.0 0.00 0.00 0.00 49 1010.6
20260502204559 59 355 1.0 4.0 0.00 0.00 0.00 49 1010.6
20260502204054 59 321 1.0 4.0 0.00 0.00 0.00 48 1010.5
20260502203554 59 322 1.0 4.0 0.00 0.00 0.00 49 1010.4
20260502203119 59 326 2.0 4.0 0.00 0.00 0.00 51 1010.4
20260502202554 59 326 1.0 4.0 0.00 0.00 0.00 50 1010.7
20260502202058 59 58 1.0 5.0 0.00 0.00 0.00 51 1010.7
20260502201618 59 299 2.0 5.0 0.00 0.00 0.00 51 1010.7
20260502201056 59 273 1.0 3.0 0.00 0.00 0.00 52 1010.6
20260502200554 59 333 0.0 3.0 0.00 0.00 0.00 52 1010.6
20260502200100 59 319 2.0 4.0 0.00 0.00 0.00 53 1010.7
20260502195553 59 310 2.0 5.0 0.00 0.00 0.00 53 1010.6
20260502195053 59 323 2.0 6.0 0.00 0.00 0.00 50 1010.8
20260502194601 59 219 2.0 6.0 0.00 0.00 0.00 51 1010.9
20260502194053 59 58 2.0 6.0 0.00 0.00 0.00 52 1010.8
20260502193553 58 22 1.0 8.0 0.00 0.00 0.00 51 1011.0
20260502193106 58 56 3.0 8.0 0.00 0.00 0.00 49 1011.2
20260502192554 59 56 3.0 8.0 0.00 0.00 0.00 49 1011.3
20260502192054 59 164 2.0 8.0 0.00 0.00 0.00 51 1011.3
20260502191603 58 59 1.0 6.0 0.00 0.00 0.00 50 1011.5
20260502191054 58 323 2.0 6.0 0.00 0.00 0.00 49 1011.6
20260502190554 58 328 2.0 6.0 0.00 0.00 0.00 48 1011.7
20260502190055 58 220 2.0 5.0 0.00 0.00 0.00 50 1011.9
20260502185553 58 333 1.0 5.0 0.00 0.00 0.00 51 1011.9
20260502185050 58 313 2.0 7.0 0.00 0.00 0.00 50 1011.9
20260502184602 58 60 3.0 7.0 0.00 0.00 0.00 50 1012.1
20260502184054 58 53 3.0 7.0 0.00 0.00 0.00 52 1012.2
20260502183555 58 307 2.0 5.0 0.00 0.00 0.00 55 1012.1
20260502183056 58 293 2.0 5.0 0.00 0.00 0.00 60 1012.2
20260502182551 57 313 2.0 5.0 0.00 0.00 0.00 63 1012.3
20260502182051 57 348 1.0 4.0 0.00 0.00 0.00 61 1012.3
20260502181556 57 6 1.0 4.0 0.00 0.00 0.00 64 1012.4
20260502181054 57 0 1.0 5.0 0.00 0.00 0.00 64 1012.4
20260502180554 56 320 1.0 5.0 0.00 0.00 0.00 65 1012.5
20260502164054 54 47 1.0 4.0 0.00 0.00 0.00 70 1013.1
20260502163554 54 149 2.0 4.0 0.00 0.00 0.00 69 1013.2
20260502163059 54 0 1.0 4.0 0.00 0.00 0.00 70 1013.2
20260502162558 54 342 1.0 4.0 0.00 0.00 0.00 71 1013.2
20260502162055 54 293 1.0 5.0 0.00 0.00 0.00 70 1013.3
20260502161556 54 27 2.0 5.0 0.00 0.00 0.00 70 1013.2
20260502161053 54 0 1.0 4.0 0.00 0.00 0.00 70 1013.2
20260502160554 54 22 1.0 4.0 0.00 0.00 0.00 70 1013.3
20260502152050 54 34 1.0 6.0 0.00 0.00 0.00 68 1013.2
20260502151612 53 53 2.0 6.0 0.00 0.00 0.00 69 1013.0
20260502151052 53 44 2.0 5.0 0.00 0.00 0.00 68 1013.1
20260502150554 53 62 1.0 4.0 0.00 0.00 0.00 69 1013.2
20260502130555 52 254 1.0 7.0 0.00 0.00 0.00 76 1013.3
20260502123553 51 255 1.0 4.0 0.00 0.00 0.00 80 1013.4
20260502123056 51 311 1.0 4.0 0.00 0.00 0.00 79 1013.4
20260502122551 51 10 1.0 4.0 0.00 0.00 0.00 80 1013.3
20260502122050 51 336 1.0 4.0 0.00 0.00 0.00 81 1013.3
20260502121558 51 324 2.0 4.0 0.00 0.00 0.00 80 1013.4
20260502121058 51 35 1.0 3.0 0.00 0.00 0.00 80 1013.5
20260502120556 51 0 0.0 4.0 0.00 0.00 0.00 81 1013.5
20260502115551 50 325 0.0 3.0 0.00 0.00 0.00 82 1013.5
20260502115054 50 0 0.0 0.0 0.00 0.00 0.00 84 1013.5
20260502114559 50 0 0.0 2.0 0.00 0.00 0.00 84 1013.5
20260502114055 49 0 0.0 2.0 0.00 0.00 0.00 85 1013.4
20260502113554 49 315 0.0 2.0 0.00 0.00 0.00 85 1013.2
20260502113111 49 0 0.0 0.0 0.00 0.00 0.00 86 1013.2
20260502112553 49 0 0.0 0.0 0.00 0.00 0.00 87 1013.4
20260502112050 48 0 0.0 0.0 0.00 0.00 0.00 87 1013.3
20260502111603 48 0 0.0 0.0 0.00 0.00 0.00 88 1013.2
20260502111053 48 0 0.0 0.0 0.00 0.00 0.00 88 1013.2
20260502110555 48 0 0.0 0.0 0.00 0.00 0.00 89 1013.2
20260502110100 47 0 0.0 0.0 0.00 0.00 0.00 89 1013.2
20260502105554 47 0 0.0 0.0 0.00 0.00 0.00 89 1013.0
20260502105051 47 0 0.0 0.0 0.00 0.00 0.00 89 1012.9
20260502104609 47 0 0.0 0.0 0.00 0.00 0.00 89 1012.9
20260502104054 46 0 0.0 0.0 0.00 0.00 0.00 89 1012.9
20260502103554 46 0 0.0 0.0 0.00 0.00 0.00 89 1012.8
20260502103059 46 0 0.0 0.0 0.00 0.00 0.00 89 1012.8
20260502102557 46 0 0.0 0.0 0.00 0.00 0.00 88 1012.7
20260502102053 47 0 0.0 0.0 0.00 0.00 0.00 88 1012.7
20260502101610 47 0 0.0 0.0 0.00 0.00 0.00 88 1012.6
20260502101051 47 0 0.0 0.0 0.00 0.00 0.00 88 1012.5
20260502100557 47 0 0.0 0.0 0.00 0.00 0.00 88 1012.5
20260502091055 48 0 0.0 0.0 0.00 0.00 0.00 86 1012.6
20260502090552 48 0 0.0 0.0 0.00 0.00 0.00 86 1012.5
20260502090107 48 0 0.0 0.0 0.00 0.00 0.00 86 1012.5